Location: Amherst
(42.3800°N, 72.5240°W)
Time: 03:15:25
(UTC-04:00)

ISS - Pass Details

Date: 18 May 2021
Orbit: 417 x 422 km, 51.6° (Epoch: 18 June)

Event Time Altitude Azimuth Distance (km) Brightness Sun altitude
Rises 23:05:59 0° 292° (WNW) 2,366 0.8 -23.6°
Reaches altitude 10° 23:08:37 10° 313° (NW) 1,503 0.0 -23.8°
Maximum altitude 23:10:54 17° 356° (N) 1,152 -0.8 -24.0°
Drops below altitude 10° 23:13:13 10° 40° (NE) 1,506 -0.7 -24.2°
Enters shadow 23:14:49 - 55° (NE) 2,003 -0.2 -24.3°
